Coolangatta Observation History
Time Wind Speed Temp Pressure Rel. Hum Rain
24/04:00pm SW 9-14 kts 21.1°c 1013.0 hPa 66% 0.0mm
24/03:30pm SW 9-13 kts 21.1°c 1013.0 hPa 65% 0.0mm
24/03:00pm SW 10-17 kts 21.4°c 1012.8 hPa 64% 0.0mm
24/02:30pm SSW 12-17 kts 21.5°c 1012.7 hPa 63% 0.0mm
24/02:00pm SSW 12-18 kts 21.5°c 1012.6 hPa 62% 0.0mm
24/01:30pm SSW 11-17 kts 22.5°c 1012.7 hPa 58% 0.0mm
24/01:00pm SSW 13-18 kts 23.9°c 1012.7 hPa 55% 0.0mm
24/12:30pm S 13-19 kts 24.2°c 1013.1 hPa 52% 0.0mm
24/12:00pm SW 8-14 kts 24.6°c 1013.4 hPa 52% 0.0mm
24/11:30am SW 6-10 kts 24.5°c 1013.9 hPa 53% 0.0mm
24/11:00am SSW 8-11 kts 24.4°c 1014.2 hPa 52% 0.0mm
24/10:30am SW 8-12 kts 23.7°c 1014.5 hPa 52% 0.0mm
24/10:00am SW 9-12 kts 23.2°c 1014.8 hPa 56% 0.0mm
24/09:30am SW 8-13 kts 22.7°c 1015.0 hPa 56% 0.0mm
24/09:00am SW 9-13 kts 22.2°c 1015.3 hPa 59% 0.0mm
24/08:30am SW 10-16 kts 21.6°c 1015.4 hPa 61% 0.0mm
24/08:00am SW 10-14 kts 21.0°c 1015.4 hPa 60% 0.0mm
24/07:30am SW 7-11 kts 20.3°c 1015.3 hPa 62% 0.0mm
24/07:00am SW 7-9 kts 19.4°c 1015.2 hPa 67% 0.0mm
24/06:30am SSW 7-11 kts 18.6°c 1015.2 hPa 70% 0.0mm
24/06:00am SSW 8-11 kts 18.7°c 1014.8 hPa 70% 0.0mm
24/05:30am SW 8-13 kts 18.5°c 1014.6 hPa 72% 0.0mm
24/05:00am SW 8-13 kts 18.6°c 1014.3 hPa 72% 0.0mm
24/04:30am SSW 7-14 kts 18.6°c 1014.3 hPa 74% 0.0mm
24/04:00am SSW 8-14 kts 18.8°c 1014.2 hPa 74% 0.0mm
24/03:30am SSW 8-11 kts 18.7°c 1014.3 hPa 75% 0.0mm
24/03:00am SSW 7-11 kts 18.9°c 1014.4 hPa 76% 0.0mm
24/02:30am SSW 7-10 kts 18.7°c 1014.5 hPa 77% 0.0mm
24/02:00am SSW 7-10 kts 18.8°c 1014.6 hPa 77% 0.0mm
24/01:30am SSW 7-11 kts 18.7°c 1014.9 hPa 77% 0.0mm
24/01:00am SSW 8-11 kts 19.2°c 1015.3 hPa 75% 0.0mm
24/12:30am SSW 9-12 kts 19.3°c 1015.4 hPa 75% 0.0mm
24/12:00am SSW 8-11 kts 19.4°c 1015.5 hPa 74% 0.0mm
Time Wind Speed Temp Pressure Rel. Hum Rain
23/11:30pm SW 8-11 kts 19.4°c 1015.6 hPa 73% 0.0mm
23/11:00pm SW 8-12 kts 19.5°c 1016.1 hPa 73% 0.0mm
23/10:30pm SW 7-10 kts 19.5°c 1016.5 hPa 73% 0.0mm
23/10:00pm SSW 8-12 kts 19.5°c 1016.6 hPa 74% 0.0mm
23/09:30pm SSW 7-9 kts 19.4°c 1016.7 hPa 75% 0.0mm
23/09:00pm SSW 9-13 kts 19.9°c 1017.0 hPa 72% 0.0mm
23/08:30pm SSW 6-9 kts 19.8°c 1016.9 hPa 72% 0.0mm
23/08:00pm S 7-10 kts 19.6°c 1016.8 hPa 74% 0.0mm
23/07:30pm S 7-10 kts 19.6°c 1016.6 hPa 76% 0.0mm
23/07:00pm S 7-9 kts 19.8°c 1016.6 hPa 76% 0.0mm
23/06:30pm S 7-10 kts 20.0°c 1016.4 hPa 77% 0.0mm
23/06:00pm S 9-13 kts 20.7°c 1015.7 hPa 72% 0.0mm
23/05:30pm SSW 9-12 kts 21.1°c 1015.5 hPa 71% 0.0mm
23/05:00pm SSW 9-13 kts 21.7°c 1015.2 hPa 68% 0.0mm
23/04:30pm S 8-11 kts 22.4°c 1014.9 hPa 65% 0.0mm
23/04:00pm S 10-14 kts 22.7°c 1015.0 hPa 61% 0.0mm
23/03:30pm S 13-19 kts 22.9°c 1014.9 hPa 61% 0.0mm
23/03:00pm SSE 14-24 kts 22.8°c 1014.8 hPa 62% 0.0mm
23/02:30pm S 10-14 kts 22.6°c 1014.7 hPa 65% 0.0mm
23/02:00pm S 13-18 kts 24.2°c 1014.6 hPa 59% 0.0mm
23/01:30pm S 14-21 kts 23.7°c 1014.8 hPa 60% 0.0mm
23/01:00pm S 12-19 kts 23.4°c 1015.0 hPa 64% 0.0mm
23/12:30pm S 15-21 kts 23.5°c 1015.0 hPa 64% 0.0mm
23/12:00pm S 13-20 kts 22.7°c 1015.3 hPa 66% 0.0mm
23/11:30am SSW 12-17 kts 22.9°c 1015.6 hPa 67% 0.0mm
23/11:00am SSW 13-19 kts 22.6°c 1016.1 hPa 68% 0.0mm
23/10:30am SSW 11-16 kts 23.1°c 1016.5 hPa 67% 0.0mm
23/10:00am SSW 13-19 kts 21.9°c 1016.6 hPa 70% 0.0mm
23/09:30am SSW 12-21 kts 22.6°c 1016.7 hPa 67% 0.0mm
23/09:00am SSW 14-21 kts 22.0°c 1016.5 hPa 69% 7.8mm
23/08:30am SSW 11-19 kts 21.4°c 1016.7 hPa 70% 7.8mm
23/08:00am SSW 11-15 kts 20.8°c 1016.8 hPa 72% 7.8mm
23/07:30am SSW 11-17 kts 20.0°c 1016.7 hPa 76% 7.8mm
23/07:00am SSW 10-15 kts 19.4°c 1016.4 hPa 78% 7.8mm
23/06:30am SSW 9-17 kts 18.9°c 1016.1 hPa 79% 7.8mm
23/06:00am SSW 9-18 kts 18.8°c 1015.6 hPa 80% 7.8mm
23/05:30am SSW 10-16 kts 18.6°c 1015.3 hPa 80% 7.8mm
23/05:00am SSW 10-14 kts 18.6°c 1015.3 hPa 80% 7.8mm
23/04:30am SSW 10-15 kts 18.6°c 1015.4 hPa 80% 7.8mm
23/04:00am SSW 9-14 kts 18.5°c 1015.5 hPa 81% 7.8mm
23/03:30am SSW 9-15 kts 18.6°c 1015.5 hPa 80% 7.8mm
23/03:00am SSW 10-15 kts 18.6°c 1015.5 hPa 80% 7.8mm
23/02:30am SSW 9-14 kts 18.7°c 1015.7 hPa 80% 7.8mm
23/02:00am SSW 9-13 kts 18.7°c 1016.0 hPa 80% 7.8mm
23/01:30am SSW 8-11 kts 18.7°c 1016.3 hPa 80% 7.8mm
23/01:00am SSW 9-12 kts 18.8°c 1016.3 hPa 81% 7.8mm
23/12:30am SSW 7-11 kts 18.6°c 1016.7 hPa 85% 7.8mm
23/12:00am SSW 7-10 kts 18.5°c 1017.0 hPa 86% 7.8mm
Time Wind Speed Temp Pressure Rel. Hum Rain
22/11:30pm SSW 6-9 kts 18.6°c 1017.3 hPa 87% 7.8mm
22/11:00pm SSW 6-8 kts 18.3°c 1017.6 hPa 92% 7.8mm
22/10:30pm S 6-9 kts 18.4°c 1018.0 hPa 94% 7.8mm
22/10:00pm S 6-11 kts 18.4°c 1018.4 hPa 93% 7.8mm
22/09:30pm SSE 9-16 kts 19.9°c 1018.7 hPa 80% 6.6mm
22/09:00pm SSW 9-12 kts 20.0°c 1017.9 hPa 76% 6.6mm
22/08:30pm SSW 7-11 kts 19.8°c 1017.9 hPa 76% 6.6mm
22/08:00pm SW 9-15 kts 20.0°c 1017.8 hPa 76% 6.6mm
22/07:30pm SSW 7-11 kts 20.1°c 1017.7 hPa 76% 6.6mm
22/07:00pm S 7-10 kts 20.3°c 1017.9 hPa 75% 6.6mm
22/06:30pm S 8-13 kts 20.5°c 1017.6 hPa 74% 6.6mm
22/06:00pm SSW 7-11 kts 20.7°c 1017.4 hPa 74% 6.6mm
22/05:30pm SSW 7-12 kts 21.0°c 1017.2 hPa 73% 6.6mm
22/05:00pm S 9-13 kts 21.6°c 1017.2 hPa 70% 6.6mm
22/04:30pm SSW 10-17 kts 22.5°c 1016.7 hPa 65% 6.6mm
22/04:00pm SSW 10-16 kts 22.9°c 1016.4 hPa 66% 6.6mm
22/03:30pm S 12-16 kts 22.9°c 1016.5 hPa 66% 6.6mm
22/03:00pm S 11-16 kts 24.0°c 1016.5 hPa 65% 6.6mm
22/02:30pm S 12-16 kts 23.5°c 1016.5 hPa 67% 6.6mm
22/02:00pm S 12-18 kts 22.7°c 1016.6 hPa 71% 6.6mm
22/01:30pm S 13-19 kts 22.7°c 1016.6 hPa 76% 6.6mm
22/01:00pm S 11-16 kts 20.6°c 1017.1 hPa 84% 6.6mm
22/12:39pm SSE 11-15 kts 19.6°c 1017.5 hPa 93% 6.6mm
22/12:30pm SSE 8-11 kts 19.5°c 1017.7 hPa 95% 6.4mm
22/12:00pm ESE 14-19 kts 19.3°c 1018.2 hPa 93% 3.6mm
22/11:56am ESE 15-20 kts 19.1°c 1018.3 hPa 90% 3.6mm
22/11:30am S 9-16 kts 20.3°c 1018.2 hPa 83% 2.4mm
22/11:11am ESE 4-9 kts 19.5°c 1018.7 hPa 92% 2.4mm
22/11:00am ESE 10-15 kts 19.1°c 1018.9 hPa 92% 2.2mm
22/10:52am SE 14-21 kts 19.3°c 1018.9 hPa 86% 1.8mm
22/10:30am S 14-22 kts 21.6°c 1018.9 hPa 76% 0.0mm
22/10:00am SSW 11-16 kts 20.6°c 1019.2 hPa 83% 0.0mm
22/09:30am S 12-18 kts 20.0°c 1019.3 hPa 84% 0.0mm
22/09:00am S 11-17 kts 20.2°c 1019.4 hPa 86% 1.4mm
22/08:30am SSW 11-17 kts 19.0°c 1019.3 hPa 89% 1.4mm
22/08:00am S 11-19 kts 18.9°c 1018.7 hPa 92% 1.4mm
22/07:30am SSW 11-16 kts 18.9°c 1018.5 hPa 86% 1.0mm
22/07:00am SSW 10-15 kts 18.6°c 1017.9 hPa 88% 1.0mm
22/06:39am SSW 10-15 kts 18.3°c 1017.7 hPa 89% 1.0mm
22/06:30am SSW 10-16 kts 18.5°c 1017.6 hPa 87% 1.0mm
22/06:24am S 10-16 kts 18.7°c 1017.6 hPa 85% 0.8mm
22/06:00am SSW 9-14 kts 19.6°c 1017.3 hPa 78% 0.2mm
22/05:30am SSW 9-16 kts 19.6°c 1017.0 hPa 78% 0.2mm
22/05:00am SSW 10-14 kts 19.6°c 1016.9 hPa 78% 0.2mm
22/04:30am SSW 11-18 kts 19.6°c 1016.9 hPa 79% 0.2mm
22/04:00am SSW 12-18 kts 19.5°c 1016.8 hPa 79% 0.2mm
22/03:30am SSW 9-13 kts 19.3°c 1016.5 hPa 81% 0.2mm
22/03:00am SSW 10-14 kts 19.3°c 1016.8 hPa 81% 0.2mm
22/02:30am SSW 10-15 kts 19.3°c 1017.1 hPa 82% 0.0mm
22/02:00am SSW 8-13 kts 19.1°c 1017.2 hPa 84% 0.0mm
22/01:30am SSW 9-13 kts 18.9°c 1017.6 hPa 85% 0.0mm
22/01:00am SSW 9-15 kts 19.6°c 1017.5 hPa 80% 0.0mm
22/12:30am SSW 11-17 kts 19.8°c 1017.9 hPa 79% 0.0mm
22/12:00am SSW 11-17 kts 20.1°c 1017.8 hPa 78% 0.0mm